Tracking 28792 objects as of 24-Apr-2024
HD Live streaming from Space Station
objects crossing your sky now

SL-3 DEB

Track SL-3 DEB now!
10-day predictions


NORAD ID: 14928
Int'l Code: 1983-075F
Perigee: 491.4 km
Apogee: 525.4 km
Inclination: 97.8 °
Period: 94.6 minutes
Semi major axis: 6879 km
RCS: 0.0341 m2 (small)
Launch date: July 24, 1983
Source: Commonwealth of Independent States (former USSR) (CIS)
Launch site: TYURATAM MISSILE AND SPACE COMPLEX (TTMTR)

Note: This is SATELLITE DEBRIS
Your satellite tracking list
Your tracking list is empty




NASA's NSSDC Master Catalog

Two Line Element Set (TLE):
1 14928U 83075F   24114.99775196  .00012464  00000-0  55197-3 0  9999
2 14928  97.7720  27.1365 0024745 290.7309  69.1274 15.21518122199055
Source of the keplerian elements: AFSPC